Flag for U.S.A. Weather past 2 weeks in Boulder, Colorado, U.S.A.

18 °F

Light snow. Low clouds.

Feels Like: 18 °F
Forecast: 11 / 29 °F
Wind: No wind

Location: Broomfield / Jeffco

Current Time: Nov 27, 2015 at 9:16:22 PM

Latest Report: Nov 27, 2015 at 7:45 PM

Visibility: 2 mi

Pressure: 30.27 "Hg (24.56 "Hg at 1623m altitude)

Humidity: 93%

Dew point: 16 °F

Location of BoulderLocation

Historic Weather in Boulder — Graph


Boulder temperature yesterday

Maximum temperature yesterday: 28 °F (at 12:14 AM)
Minimum temperature yesterday: 16 °F (at 9:47 PM)
Average temperature yesterday: 23 °F

Past Weeks' High & Low Weather Summary

High64 °F (Nov 14, 1:49 PM)100% (Nov 16, 5:47 PM)30.39 "Hg (Nov 16, 5:47 PM)
Low12 °F (Nov 27, 8:47 AM)12% (Nov 15, 2:46 PM)29.47 "Hg (Nov 16, 12:48 PM)
Average38 °F55%29.97 "Hg
* Reported Nov 12 8:49 PM — Nov 27 7:45 PM, Boulder, Weather by CustomWeather, © 2015

Note: Actual official high and low records may vary slightly from our data, if they occured in-between our weather recording intervals... More about our weather records


Boulder weather history for previous 24 hours

Time TempWeatherWind HumidityBarometerVisibility
7:45 PM
Fri, Nov 27
18 °FLight snow. Low clouds.No wind93%30.27 "Hg2 mi
6:51 PM18 °FLight snow. Mostly cloudy.5 mph93%30.28 "Hg5 mi
5:48 PM18 °FLight snow. Mostly cloudy.6 mph86%30.28 "Hg6 mi
4:59 PM18 °FLight snow. Mostly cloudy.6 mph86%30.28 "Hg10 mi
3:46 PM18 °FLight snow. Overcast.5 mph86%30.28 "Hg10 mi
2:47 PM19 °FMore clouds than sun.No wind73%30.28 "Hg10 mi
1:45 PM19 °FPartly sunny.No wind73%30.29 "Hg10 mi
12:45 PM18 °FPartly sunny.3 mph79%30.31 "Hg7 mi
11:45 AM18 °FPartly sunny.3 mph79%30.34 "Hg7 mi
10:47 AM18 °FPartly sunny.3 mph79%30.37 "Hg7 mi
9:47 AM16 °FLight snow. Broken clouds.5 mph86%30.38 "Hg3 mi
8:47 AM12 °FLight snow. Cloudy.7 mph92%30.39 "Hg2 mi
7:47 AM14 °FLight snow. Mostly cloudy.5 mph92%30.39 "Hg5 mi
6:47 AM14 °FLight snow. Overcast.No wind92%30.39 "Hg5 mi
5:57 AM14 °FLight snow. Low clouds.3 mph92%30.38 "Hg3 mi
4:55 AM14 °FLight snow. Overcast.No wind92%30.38 "Hg1 mi
4:35 AM14 °FLight snow. Overcast.3 mph92%30.38 "Hg2 mi
4:15 AM16 °FLight snow. Mostly cloudy.3 mph93%30.38 "Hg2 mi
3:55 AM16 °FLight snow. Low clouds.5 mph93%30.38 "Hg1 mi
3:34 AM16 °FLight snow. Low clouds.5 mph93%30.37 "Hg2 mi
3:15 AM16 °FLight snow. Mostly cloudy.5 mph93%30.38 "Hg2 mi
2:54 AM16 °FLight snow. Mostly cloudy.5 mph93%30.38 "Hg3 mi
2:35 AM16 °FLight snow. Low clouds.7 mph93%30.37 "Hg2 mi
2:15 AM16 °FLight snow. Low clouds.5 mph93%30.38 "Hg1 mi
1:54 AM16 °FSnow. Low clouds.3 mph93%30.37 "Hg1 mi
1:35 AM18 °FHeavy snow. Low clouds.No wind86%30.36 "Hg1 mi
1:15 AM18 °FSnow. Low clouds.No wind86%30.37 "Hg1 mi
12:55 AM18 °FLight snow. Low clouds.No wind86%30.37 "Hg1 mi
11:35 PM
Thu, Nov 26
16 °FLight snow. Low clouds.3 mph93%30.37 "Hg1 mi
10:55 PM18 °FLight snow. Mostly cloudy.7 mph86%30.37 "Hg2 mi
10:35 PM18 °FLight snow. Low clouds.8 mph86%30.37 "Hg5 mi
9:47 PM16 °FMostly cloudy.6 mph93%30.36 "Hg5 mi
Weather by CustomWeather, © 2015

See weather overviewHow to use our weather pages